AirNav   Everest Fuels
 
 694 users online  

1B9 Mansfield Municipal Airport
Mansfield, Massachusetts, USA

GOING TO MANSFIELD?


FAA INFORMATION EFFECTIVE 21 MAY 2020

Location

FAA Identifier: 1B9
Lat/Long: 42-00-03.2605N 071-11-53.5920W
42-00.054342N 071-11.893200W
42.0009057,-71.1982200
(estimated)
Elevation: 121.5 ft. / 37.0 m (surveyed)
Variation: 16W (1995)
From city: 2 miles SE of MANSFIELD, MA
Time zone: UTC -4 (UTC -5 during Standard Time)
Zip code: 02048

Airport Operations

Airport use: Open to the public
Activation date: 05/1943
Control tower: no
ARTCC: BOSTON CENTER
FSS: BRIDGEPORT FLIGHT SERVICE STATION
NOTAMs facility: BDR (NOTAM-D service available)
Attendance: APR-NOV 0800-DUSK, DEC-MAR 0900-1700
Wind indicator: yes
Segmented circle: no
Lights: ACTVT MIRL RWY 14/32 - CTAF.
Beacon: white-green (lighted land airport)
Operates sunset to sunrise.

Airport Communications

CTAF/UNICOM: 123.0
BOSTON APPROACH: 124.1
BOSTON DEPARTURE: 124.1
WX ASOS at TAN (11 nm SE): 132.675 (508-824-5005)
WX ASOS at OWD (11 nm N): 119.95 (781-762-4314)
WX AWOS-3PT at SFZ (14 nm W): 120.775 (401-334-0324)
WX ASOS at PVD (20 nm SW): 124.2 (401-734-2818)
  • CLNC DLVY THRU BRIDGEPORT RADIO (BDR) 1-866-293-5149.

Nearby radio navigation aids

VOR radial/distance  VOR name  Freq  Var
PVDr046/19.6PROVIDENCE VOR/DME115.6014W
BOSr219/23.3BOSTON VOR/DME112.7016W
PUTr099/28.9PUTNAM VOR/DME117.4014W

 
NDB name  Hdg/Dist  Freq  Var  ID
STOGE219/7.839715WOW --- .--

Airport Services

Fuel available: 100LL JET-A
PPR.
Parking: tiedowns
Airframe service: MAJOR
Powerplant service: MAJOR
Bottled oxygen: NONE
Bulk oxygen: NONE

Runway Information

Runway 14/32

Dimensions: 3503 x 75 ft. / 1068 x 23 m
Surface: asphalt, in good condition
Weight bearing capacity: 
Single wheel: 26.0
Runway edge lights: medium intensity
RUNWAY 14  RUNWAY 32
Latitude: 42-00.157177N41-59.846545N
Longitude: 071-12.119135W071-11.467672W
Elevation: 121.5 ft.119.1 ft.
Traffic pattern: leftleft
Runway heading: 139 magnetic, 123 true319 magnetic, 303 true
Displaced threshold: 512 ft.237 ft.
Markings: basic, in good conditionnonprecision, in good condition
Visual slope indicator: 4-light PAPI on left (4.00 degrees glide path)
Touchdown point: yes, no lightsyes, no lights
Obstructions: 50 ft. trees, 1200 ft. from runway, 20:1 slope to clear
RWY 14 APCH RATIO 34:1 TO DSPLCD THR.
50 ft. trees, 800 ft. from runway, 125 ft. left and right of centerline, 12:1 slope to clear
RWY 32 APCH RATIO 34:1 TO DSPLCD THR.

Runway 4/22

Dimensions: 2200 x 100 ft. / 671 x 30 m
Surface: turf, in fair condition
RUNWAY 4  RUNWAY 22
Latitude: 41-59.977797N42-00.298018N
Longitude: 071-12.165763W071-11.938507W
Elevation: 120.0 ft.121.5 ft.
Traffic pattern: leftleft
Runway heading: 044 magnetic, 028 true224 magnetic, 208 true
Markings: nonenone
Touchdown point: yes, no lightsyes, no lights
Obstructions: 42 ft. trees, 830 ft. from runway, 20:1 slope to clear100 ft. trees, 600 ft. from runway, 40 ft. of centerline, 6:1 slope to clear

Airport Ownership and Management from official FAA records

Ownership: Publicly-owned
Owner: TOWN OF MANSFIELD
TOWN HALL, 6 PARK ROW
MANSFIELD, MA 02048
Phone 508-261-7370
Manager: KEVIN BULLOCK
265 FRUIT STREET
MANSFIELD, MA 02048
Phone (508) 339-3001
OR 508-339-3001.

Airport Operational Statistics

Aircraft based on the field: 45
Single engine airplanes: 42
Multi engine airplanes: 2
Gliders airplanes: 1
    
Aircraft operations: avg 131/day *
63% local general aviation
33% transient general aviation
3% air taxi
1% military
* for 12-month period ending 01 July 2018

Additional Remarks

TURF STRIP CLSD WINTER MONTHS & AFTER HEAVY RAINS.
DEER ON AND INVOF ARPT.
ON DEP RWY 32 TURN LEFT TO 290 DEGS.
ON DEP RWY 14 NO LEFT TURNS TIL 824 FT MSL.
NO TGLS 2100-0800.
NO RIGHT TURNS ON DEP FM RWY 32 TIL 1000 FT MSL.

Instrument Procedures

NOTE: All procedures below are presented as PDF files. If you need a reader for these files, you should download the free Adobe Reader.

NOT FOR NAVIGATION. Please procure official charts for flight.
FAA instrument procedures published for use from 21 May 2020 at 0901Z to 18 June 2020 at 0900Z.

 
STARs - Standard Terminal Arrivals
WOONS TWO   download (173KB)
 
IAPs - Instrument Approach Procedures
RNAV (GPS) RWY 32   download (200KB)
NOTE: Special Take-Off Minimums/Departure Procedures apply   download (180KB)

Other nearby airports with instrument procedures:

KTAN - Taunton Municipal Airport - King Field (11 nm SE)
KOWD - Norwood Memorial Airport (11 nm N)
KSFZ - North Central State Airport (14 nm W)
1B6 - Hopedale Industrial Park Airport (15 nm NW)
KPVD - Theodore Francis Green State Airport (20 nm SW)
 
Loc | Ops | Rwys | IFR | FBO | Links
Com | Nav | Svcs | Stats | Notes
Area around 1B9 (Mansfield Municipal Airport)
 
Road maps at: MapQuest Bing Google
 
Aerial photo
WARNING: Photo may not be current or correct
Aerial photo of 1B9 (Mansfield Municipal Airport)
Photo by Barry Turner
Photo taken 01-Oct-2017
looking east.

Do you have a better or more recent aerial photo of Mansfield Municipal Airport that you would like to share? If so, please send us your photo.

 
Sectional chart

 
Airport distance calculator
Flying to Mansfield Municipal Airport? Find the distance to fly.

From to 1B9

Sunrise and sunset
Times for 06-Jun-2020
 Local
(UTC-4)
 Zulu
(UTC)
Morning civil twilight04:3608:36
Sunrise05:1009:10
Sunset20:1700:17
Evening civil twilight20:5100:51

Current date and time
Zulu (UTC)  06-Jun-2020 11:57:39
Local (UTC-4)  06-Jun-2020 07:57:39
 
METAR
KTAN 
11nm SE 
061152Z AUTO VRB05KT 9SM OVC002 20/18 A2979 RMK AO2 RAE06 SLP086 P0001 60012 70021 T02000183 10206 20194 58002 $
KOWD 
11nm N 
061153Z 22009KT 10SM OVC008 23/19 A2977 RMK AO2 SLP080 60001 70002 T02280194 10228 20206 58002
KMQE 
13nm N 
061151Z AUTO 20010KT 19/19 A2978 RMK AO1 SLP090 70001 T01940189 10194 20189 58001
KSFZ 
14nm W 
061056Z AUTO 22007KT 10SM OVC003 20/20 A2980 RMK AO2 SLP037 T02000200
KPVD 
20nm SW 
061151Z 24006KT 10SM OVC006 21/20 A2979 RMK AO2 SLP087 60004 70010 T02060200 10206 20189 58003 $
KPYM 
21nm E 
061152Z AUTO 21008KT 10SM OVC004 19/19 A2979 RMK AO2 RAB09E29 SLP087 P0000 60015 70030 T01940189 10200 20189 58004
TAF
NOTAMs
Click for the latest NOTAMs
NOTAMs are issued by the DoD/FAA and will open in a separate window not controlled by AirNav.

 

 
 

FBO, Fuel Providers, and Aircraft Ground Support

  
 Business Name 
 
 Contact 
 
 Services / Description 
 
Fuel Prices
 
Comments
  
 Aero Fuel Management
508-339-3001
[web site]
[email]
Airport management, Aviation fuel, Aircraft parking (ramp or tiedown), Hangars, Restrooms

More info about Aero Fuel Management
Shell
100LL
SS $4.40 
GUARANTEED
 
   2 read write
 Raven Energy,LLC
508-612-2463
508-612-9790
[web site]
[email]
Jet A fuel available upon request only please call 508-612-2463 or 508-612-9790
 
U.S. Government AIR Card   AVCARD® by World Fuel  
 
More info about Raven Energy,LLC
Jet A
FS $4.75 
 Updated 08-Feb-2019
 
   write
FS=Full service
SS=Self service
Update Fuel Prices
 

Would you like to see your business listed on this page?

 If your business provides an interesting product or service to pilots, flight crews, aircraft, or users of the Mansfield Municipal Airport, you should consider listing it here.  To start the listing process, click on the button below
 
Add a business
 

Other Pages about Mansfield Municipal Airport

www.mansfieldma.com/...
 
Update a link
 
Copyright © AirNav, LLC. All rights reserved. Privacy Policy  Contact